Location: Hradec Kralove
(50.2170°N, 15.8330°E)
Time: 12:04:21
(UTC+02:00)

Explorer 7 - Pass Details

Date: 27 January 2023
Orbit: 478 x 657 km, 50.3° (Epoch: 26 March)

Event Time Altitude Azimuth Distance (km) Brightness Sun altitude
Rises 17:16:19 0° 270° (W) 2,861 12.0 -5.9°
Reaches altitude 10° 17:18:34 10° 270° (W) 1,984 11.0 -6.3°
Maximum altitude 17:23:10 88° 358° (N) 645 7.2 -6.9°
Drops below altitude 10° 17:27:57 10° 91° (E) 2,063 9.1 -7.7°
Enters shadow 17:28:24 - 91° (E) 2,237 9.3 -7.7°
Sets 17:30:20 0° 91° (E) 2,985 - -8.0°
